CW2615 Weather Reports


time (UTC)temp
C
wind
direction
speed
KPH
gust
KPH
rain 1hr
cm
rain 24hr
cm
rain mn
cm
humidity
%
barometer
mb
20260503021816 2 0 0.0 0.0 0.00 0.00 0.00 67 1013.2
20260503021316 2 0 0.0 0.0 0.00 0.00 0.00 67 1013.2
20260503020816 2 0 0.0 0.0 0.00 0.00 0.00 66 1013.3
20260503020316 2 0 0.0 0.0 0.00 0.00 0.00 66 1013.2
20260503015816 2 0 0.0 0.0 0.00 0.00 0.00 66 1013.4
20260503015316 2 0 0.0 0.0 0.00 0.00 0.00 66 1013.2
20260503014816 3 0 0.0 0.0 0.00 0.00 0.00 66 1013.3
20260503014316 3 0 0.0 0.0 0.00 0.00 0.00 64 1013.4
20260503013816 3 0 0.0 0.0 0.00 0.00 0.00 64 1013.2
20260503013316 3 0 0.0 0.0 0.00 0.00 0.00 63 1013.2
20260503012816 3 0 0.0 0.0 0.00 0.00 0.00 63 1013.3
20260503012316 4 0 0.0 0.0 0.00 0.00 0.00 62 1013.2
20260503011816 5 0 0.0 0.0 0.00 0.00 0.00 61 1013.2
20260503011316 5 0 0.0 0.0 0.00 0.00 0.00 61 1013.2
20260503010816 5 0 0.0 0.0 0.00 0.00 0.00 59 1013.1
20260503010316 5 0 0.0 0.0 0.00 0.00 0.00 60 1013.3
20260503005816 6 0 0.0 0.0 0.00 0.00 0.00 57 1013.1
20260503005316 6 0 0.0 0.0 0.00 0.00 0.00 58 1013.2
20260503004816 6 0 0.0 0.0 0.00 0.00 0.00 56 1013.2
20260503004316 6 0 0.0 0.0 0.00 0.00 0.00 55 1013.2
20260503003816 6 0 0.0 0.0 0.00 0.00 0.00 55 1013.3
20260503003316 7 0 0.0 0.0 0.00 0.00 0.00 55 1013.1
20260503002816 7 0 0.0 0.0 0.00 0.00 0.00 55 1013.2
20260503002316 7 0 0.0 0.0 0.00 0.00 0.00 55 1013.2
20260503001836 7 0 0.0 0.0 0.00 0.00 0.00 55 1013.2
20260503001316 7 0 0.0 0.0 0.00 0.00 0.00 55 1013.2
20260503000816 7 0 0.0 0.0 0.00 0.00 0.00 53 1013.3
20260503000318 8 0 0.0 0.0 0.00 0.00 0.00 51 1013.3
20260502235816 8 0 0.0 0.0 0.00 0.00 0.00 52 1013.3
20260502235316 8 0 0.0 0.0 0.00 0.00 0.00 51 1013.4
20260502234816 8 0 0.0 0.0 0.00 0.00 0.00 50 1013.5
20260502234316 8 0 0.0 0.0 0.00 0.00 0.00 52 1013.6
20260502233836 8 0 0.0 0.0 0.00 0.00 0.00 49 1013.5
20260502233316 8 0 0.0 0.0 0.00 0.00 0.00 49 1013.6
20260502232816 9 0 0.0 0.0 0.00 0.00 0.00 51 1013.6
20260502232316 9 0 0.0 0.0 0.00 0.00 0.00 50 1013.7
20260502231816 9 0 0.0 0.0 0.00 0.00 0.00 50 1013.6
20260502231316 9 0 0.0 0.0 0.00 0.00 0.00 49 1013.7
20260502230816 9 0 0.0 0.0 0.00 0.00 0.00 49 1013.7
20260502230316 9 0 0.0 0.0 0.00 0.00 0.00 49 1013.7
20260502225816 10 0 0.0 0.0 0.00 0.00 0.00 49 1013.8
20260502225316 10 0 0.0 0.0 0.00 0.00 0.00 49 1013.9
20260502224816 10 0 0.0 0.0 0.00 0.00 0.00 49 1013.9
20260502224316 10 0 0.0 0.0 0.00 0.00 0.00 49 1013.9
20260502223836 10 0 0.0 0.0 0.00 0.00 0.00 49 1013.9
20260502223336 10 0 0.0 0.0 0.00 0.00 0.00 50 1014.0
20260502222816 10 0 0.0 0.0 0.00 0.00 0.00 49 1014.0
20260502222316 11 0 0.0 0.0 0.00 0.00 0.00 49 1014.1
20260502221816 10 0 0.0 0.0 0.00 0.00 0.00 49 1014.2
20260502221316 11 0 0.0 0.0 0.00 0.00 0.00 49 1014.3
20260502220816 11 0 0.0 0.0 0.00 0.00 0.00 49 1014.3
20260502220316 11 0 0.0 0.0 0.00 0.00 0.00 47 1014.3
20260502215816 11 0 0.0 0.0 0.00 0.00 0.00 50 1014.5
20260502215316 11 0 0.0 0.0 0.00 0.00 0.00 49 1014.5
20260502214816 11 0 0.0 0.0 0.00 0.00 0.00 50 1014.4
20260502213511 11 0 0.0 0.0 0.00 0.00 0.00 49 1014.7
20260502213011 11 0 0.0 0.0 0.00 0.00 0.00 49 1014.6
20260502212511 11 0 0.0 0.0 0.00 0.00 0.00 49 1014.6
20260502212031 11 0 0.0 0.0 0.00 0.00 0.00 49 1014.8
20260502211511 11 0 0.0 0.0 0.00 0.00 0.00 50 1014.8
20260502211011 11 0 0.0 0.0 0.00 0.00 0.00 48 1014.6
20260502210511 11 0 0.0 0.0 0.00 0.00 0.00 49 1014.8
20260502210011 11 0 0.0 0.0 0.00 0.00 0.00 49 1014.8
20260502205511 11 0 0.0 0.0 0.00 0.00 0.00 48 1015.0
20260502205011 11 0 0.0 0.0 0.00 0.00 0.00 49 1014.9
20260502204511 11 0 0.0 0.0 0.00 0.00 0.00 49 1014.9
20260502204011 11 0 0.0 0.0 0.00 0.00 0.00 49 1015.1
20260502203511 11 0 0.0 0.0 0.00 0.00 0.00 49 1015.1
20260502203011 11 0 0.0 0.0 0.00 0.00 0.00 48 1015.1
20260502202511 11 0 0.0 0.0 0.00 0.00 0.00 49 1015.1
20260502202011 11 0 0.0 0.0 0.00 0.00 0.00 49 1015.2
20260502201511 10 0 0.0 0.0 0.00 0.00 0.00 49 1015.3
20260502201011 10 0 0.0 0.0 0.00 0.00 0.00 50 1015.4
20260502200551 10 0 0.0 0.0 0.00 0.00 0.00 51 1015.5
20260502200011 10 0 0.0 0.0 0.00 0.00 0.00 49 1015.6
20260502195511 10 0 0.0 0.0 0.00 0.00 0.00 52 1015.6
20260502195011 10 0 0.0 0.0 0.00 0.00 0.00 50 1015.8
20260502194511 10 0 0.0 0.0 0.00 0.00 0.00 50 1015.8
20260502194011 10 0 0.0 0.0 0.00 0.00 0.00 49 1015.8
20260502193511 10 0 0.0 0.0 0.00 0.00 0.00 53 1015.9
20260502193011 10 0 0.0 0.0 0.00 0.00 0.00 50 1015.9
20260502192511 10 0 0.0 0.0 0.00 0.00 0.00 52 1016.0
20260502192011 10 0 0.0 0.0 0.00 0.00 0.00 50 1016.1
20260502191511 10 0 0.0 0.0 0.00 0.00 0.00 50 1016.1
20260502191011 10 0 0.0 0.0 0.00 0.00 0.00 50 1016.1
20260502190511 10 0 0.0 0.0 0.00 0.00 0.00 52 1016.1
20260502190011 10 0 0.0 0.0 0.00 0.00 0.00 52 1016.1
20260502185511 10 0 0.0 0.0 0.00 0.00 0.00 50 1016.1
20260502185011 10 0 0.0 0.0 0.00 0.00 0.00 49 1016.3
20260502184511 10 0 0.0 0.0 0.00 0.00 0.00 49 1016.3
20260502184011 10 0 0.0 0.0 0.00 0.00 0.00 49 1016.3
20260502183511 10 0 0.0 0.0 0.00 0.00 0.00 51 1016.3
20260502183011 10 0 0.0 0.0 0.00 0.00 0.00 49 1016.3
20260502182511 10 0 0.0 0.0 0.00 0.00 0.00 49 1016.3
20260502182011 10 0 0.0 0.0 0.00 0.00 0.00 49 1016.4
20260502181631 10 0 0.0 0.0 0.00 0.00 0.00 49 1016.5
20260502181011 10 0 0.0 0.0 0.00 0.00 0.00 49 1016.4
20260502180511 10 0 0.0 0.0 0.00 0.00 0.00 49 1016.4
20260502164011 10 0 0.0 0.0 0.00 0.00 0.00 51 1016.8
20260502163511 10 0 0.0 0.0 0.00 0.00 0.00 52 1016.8
20260502163011 10 0 0.0 0.0 0.00 0.00 0.00 52 1016.9
20260502162511 10 0 0.0 0.0 0.00 0.00 0.00 55 1016.9
20260502162011 10 0 0.0 0.0 0.00 0.00 0.00 55 1016.9
20260502161511 10 0 0.0 0.0 0.00 0.00 0.00 55 1017.0
20260502161011 9 0 0.0 0.0 0.00 0.00 0.00 55 1017.1
20260502160511 10 0 0.0 0.0 0.00 0.00 0.00 55 1017.0
20260502152011 8 0 0.0 0.0 0.00 0.00 0.00 56 1017.2
20260502151531 8 0 0.0 0.0 0.00 0.00 0.00 58 1017.2
20260502151031 8 0 0.0 0.0 0.00 0.00 0.00 58 1017.1
20260502150511 8 0 0.0 0.0 0.00 0.00 0.00 59 1017.2
20260502130511 1 0 0.0 0.0 0.00 0.00 0.00 94 1017.7
20260502123511 0 0 0.0 0.0 0.00 0.00 0.00 97 1017.8
20260502123011 0 0 0.0 0.0 0.00 0.00 0.00 98 1017.7
20260502122511 -1 0 0.0 0.0 0.00 0.00 0.00 97 1017.8
20260502122011 -1 0 0.0 0.0 0.00 0.00 0.00 97 1017.7
20260502121511 -1 0 0.0 0.0 0.00 0.00 0.00 100 1017.8
20260502121011 -2 0 0.0 0.0 0.00 0.00 0.00 100 1017.7
20260502120511 -2 0 0.0 0.0 0.00 0.00 0.00 100 1017.8
20260502115511 -2 0 0.0 0.0 0.00 0.00 0.00 100 1017.8
20260502115011 -2 0 0.0 0.0 0.00 0.00 0.00 100 1017.6
20260502114511 -3 0 0.0 0.0 0.00 0.00 0.00 99 1017.6
20260502114011 -3 0 0.0 0.0 0.00 0.00 0.00 99 1017.7
20260502113511 -3 0 0.0 0.0 0.00 0.00 0.00 99 1017.7
20260502113011 -3 0 0.0 0.0 0.00 0.00 0.00 99 1017.6
20260502112531 -3 0 0.0 0.0 0.00 0.00 0.00 99 1017.6
20260502112031 -3 0 0.0 0.0 0.00 0.00 0.00 98 1017.6
20260502111511 -4 0 0.0 0.0 0.00 0.00 0.00 97 1017.5
20260502111011 -4 0 0.0 0.0 0.00 0.00 0.00 97 1017.6
20260502110531 -4 0 0.0 0.0 0.00 0.00 0.00 97 1017.6
20260502110011 -4 0 0.0 0.0 0.00 0.00 0.00 97 1017.6
20260502105511 -4 0 0.0 0.0 0.00 0.00 0.00 97 1017.5
20260502105011 -4 0 0.0 0.0 0.00 0.00 0.00 96 1017.5
20260502104551 -4 0 0.0 0.0 0.00 0.00 0.00 96 1017.6
20260502104011 -4 0 0.0 0.0 0.00 0.00 0.00 96 1017.5
20260502103511 -4 0 0.0 0.0 0.00 0.00 0.00 97 1017.5
20260502103011 -4 0 0.0 0.0 0.00 0.00 0.00 97 1017.6
20260502102531 -4 0 0.0 0.0 0.00 0.00 0.00 97 1017.6
20260502102011 -4 0 0.0 0.0 0.00 0.00 0.00 97 1017.6
20260502101511 -4 0 0.0 0.0 0.00 0.00 0.00 97 1017.5
20260502101011 -4 0 0.0 0.0 0.00 0.00 0.00 97 1017.5
20260502100511 -3 0 0.0 0.0 0.00 0.00 0.00 97 1017.6
20260502091511 -3 0 0.0 0.0 0.00 0.00 0.00 98 1017.3
20260502091051 -3 0 0.0 0.0 0.00 0.00 0.00 98 1017.3
20260502090531 -3 0 0.0 0.0 0.00 0.00 0.00 98 1017.2
20260502071511 -2 0 0.0 0.0 0.00 0.00 0.00 81 1017.2
20260502071011 -2 0 0.0 0.0 0.00 0.00 0.00 81 1017.1
20260502070511 -2 0 0.0 0.0 0.00 0.00 0.00 81 1017.1
20260502070011 -2 0 0.0 0.0 0.00 0.00 0.00 81 1017.2
20260502065511 -2 0 0.0 0.0 0.00 0.00 0.00 81 1017.1
20260502065011 -2 0 0.0 0.0 0.00 0.00 0.00 81 1017.2
20260502064511 -2 0 0.0 0.0 0.00 0.00 0.00 81 1017.2
20260502064011 -2 0 0.0 0.0 0.00 0.00 0.00 81 1017.2
20260502063511 -2 0 0.0 0.0 0.00 0.00 0.00 81 1017.2
20260502063011 -2 0 0.0 0.0 0.00 0.00 0.00 80 1017.2
20260502062511 -2 0 0.0 0.0 0.00 0.00 0.00 80 1017.1
20260502062011 -2 0 0.0 0.0 0.00 0.00 0.00 80 1017.2
20260502061511 -2 0 0.0 0.0 0.00 0.00 0.00 80 1017.2
20260502061011 -2 0 0.0 0.0 0.00 0.00 0.00 80 1017.2
20260502060611 -2 0 0.0 0.0 0.00 0.00 0.00 80 1017.1
20260502060031 -2 0 0.0 0.0 0.00 0.00 0.00 80 1017.2
20260502055511 -2 0 0.0 0.0 0.00 0.00 0.00 80 1017.2
20260502055011 -2 0 0.0 0.0 0.00 0.00 0.00 80 1017.1
20260502054511 -2 0 0.0 0.0 0.00 0.00 0.00 80 1017.1
20260502054011 -2 0 0.0 0.0 0.00 0.00 0.00 79 1017.2
20260502053511 -2 0 0.0 0.0 0.00 0.00 0.00 80 1017.2
20260502053011 -2 0 0.0 0.0 0.00 0.00 0.00 79 1017.1
20260502052511 -2 0 0.0 0.0 0.00 0.00 0.00 79 1017.2
20260502052011 -2 0 0.0 0.0 0.00 0.00 0.00 79 1017.1
20260502051511 -2 0 0.0 0.0 0.00 0.00 0.00 79 1017.2
20260502051011 -2 0 0.0 0.0 0.00 0.00 0.00 78 1017.1
20260502050531 -2 0 0.0 0.0 0.00 0.00 0.00 79 1017.2
20260502050011 -2 0 0.0 0.0 0.00 0.00 0.00 78 1017.1
20260502045511 -2 0 0.0 0.0 0.00 0.00 0.00 78 1017.3
20260502045011 -1 0 0.0 0.0 0.00 0.00 0.00 78 1017.1
20260502044511 -1 0 0.0 0.0 0.00 0.00 0.00 78 1017.0
20260502044011 -1 0 0.0 0.0 0.00 0.00 0.00 78 1017.2
20260502043511 -1 0 0.0 0.0 0.00 0.00 0.00 78 1017.2
20260502043011 -1 0 0.0 0.0 0.00 0.00 0.00 77 1017.2
20260502042511 -1 0 0.0 0.0 0.00 0.00 0.00 77 1017.2
20260502042011 -1 0 0.0 0.0 0.00 0.00 0.00 77 1017.2
20260502041511 -1 0 0.0 0.0 0.00 0.00 0.00 77 1017.1
20260502041011 0 0 0.0 0.0 0.00 0.00 0.00 77 1017.1
20260502040511 0 0 0.0 0.0 0.00 0.00 0.00 76 1017.2
20260502040011 0 0 0.0 0.0 0.00 0.00 0.00 76 1017.1
20260502035511 0 0 0.0 0.0 0.00 0.00 0.00 76 1017.3
20260502035011 0 0 0.0 0.0 0.00 0.00 0.00 76 1017.3
20260502034511 0 0 0.0 0.0 0.00 0.00 0.00 76 1017.2
20260502034031 0 0 0.0 0.0 0.00 0.00 0.00 86 1017.2
20260502033511 0 0 0.0 0.0 0.00 0.00 0.00 85 1017.2
20260502033031 0 0 0.0 0.0 0.00 0.00 0.00 85 1017.2
20260502032511 0 0 0.0 0.0 0.00 0.00 0.00 85 1017.1
20260502032011 0 0 0.0 0.0 0.00 0.00 0.00 85 1017.2
20260502031511 0 0 0.0 0.0 0.00 0.00 0.00 85 1017.2
20260502031011 0 0 0.0 0.0 0.00 0.00 0.00 84 1017.2
20260502030511 1 0 0.0 0.0 0.00 0.00 0.00 84 1017.2
20260502030011 1 0 0.0 0.0 0.00 0.00 0.00 84 1017.2
20260502025511 1 0 0.0 0.0 0.00 0.00 0.00 83 1017.3
20260502025011 1 0 0.0 0.0 0.00 0.00 0.00 83 1017.2
20260502024531 1 0 0.0 0.0 0.00 0.00 0.00 83 1017.3
20260502024011 1 0 0.0 0.0 0.00 0.00 0.00 83 1017.3
20260502023511 1 0 0.0 0.0 0.00 0.00 0.00 83 1017.3
20260502023011 1 0 0.0 0.0 0.00 0.00 0.00 82 1017.3
20260502022511 1 0 0.0 0.0 0.00 0.00 0.00 83 1017.3